COSMOS 1251

Satellite information

Favourite Embed

Satellite Type and Status

PAYLOADIN ORBIT

Key statistics

Satellite COSMOS 1251 at a glance.

Uptime

16195

Days in orbit

Revolutions

≈ 12.6

Per day

Orbit

LEO

Low Earth Orbit

Inclination

74.0

Latest

Satellite identification and parameters

Extended collection of information and parameters for COSMOS 1251.

Object identification

Identified? True

Debris? False

Object name: COSMOS 1251

International designator: 1981-022B

Object number (NORAD): 12321

Object ID (CCSDS): 12321

Country: COMMONWEALTH OF INDEPENDENT STATES (CIS)

Current information (Y/N): Y

RCS size: MEDIUM

Orbital parameters

Period: 114.606 minutes

Inclination: 74.0278 deg

SMA: 7815.631 km

Apoapsis: 1472.568 km

Periapsis: 1402.424 km

RAAN: 167.8481 deg

Eccentricy: 0.0044874

Argument of periapsis: 314.1518 deg

Mean anomaly: 73.3232 deg

Mean motion: 12.56483287 rev/day

Mean motion (dot): -0.00000012 rev/day2

B* drag term: 0.000027593 1/REarth

Two-line elements (TLE)

Creation date: July 8, 2025, 2:27 a.m.

Reference frame: TEME

Reference center: EARTH

Epoch: July 7, 2025, 10:15 p.m. UTC

TLE line 0: 0 COSMOS 1251

TLE line 1: 1 12321U 81022B 25188.92728194 -.00000012 00000-0 27593-4 0 9992

TLE line 2: 2 12321 74.0278 167.8481 0044874 314.1518 73.3232 12.56483287 33680

Live tracking on map

Real-time ground track for satellite COSMOS 1251.

In-orbit conjunctions

There are no conjunctions computed for COSMOS 1251, at the moment. Check back to stay up to date, as we update our databases every day.

Go to all conjunctions

Associated space launch

Military communications satellites

COSMOS 1251 was lifted into orbit during the mission ‘Kosmos-3M | Strela-1M 209-216’, on board a Kosmos-3M space rocket.

The launch took place on March 6, 1981, 11:31 a.m. from 132/2.

For more information about the launch, click the button.

Launch to space Kosmos-3M | Strela-1M 209-216
Kosmos-3M | Strela-1M 209-216

Agency: N/A

Status: Launch Successful

Launch date: March 6, 1981, 11:31 a.m. UTC

Rocket: Kosmos-3M

Launch pad: 132/2

Location: Plesetsk Cosmodrome, Russian Federation

...

Latest news about this satellite

There are no fresh news available about this satellite. Check back as we update our databases every day.


Newsletter sign-up

Weekly statistics, charts and insights to help you stay on top of the space industry.